Location: Banff
(51.1670°N, 115.5670°W)
Time: 23:27:53
(UTC-06:00)

Daily predictions for brighter satellites

Satellite Brightness Start Highest point End
(mag) Time Altitude Azimuth Time Altitude Azimuth Time Altitude Azimuth
BREEZE-M DEB (TANK) 3.8 21:17:12 10° SW 21:20:08 38° SSE 21:26:55 10° E
Cosmos 1486 Rocket 4.4 21:20:39 10° NNW 21:25:51 67° WSW 21:31:03 10° S
Cosmos 839 Rocket 4.4 21:19:33 10° SW 21:26:50 79° NW 21:33:08 10° NE
ERS-1 Rocket 3.5 21:23:32 10° SE 21:28:15 42° ENE 21:32:59 10° N
Cosmos 1455 2.1 21:25:54 10° S 21:29:42 84° E 21:33:30 10° NNE
SAR-Lupe-1 4.0 21:27:35 10° SSE 21:31:10 83° ENE 21:34:47 10° NNW
Cosmos 220 Rocket 4.1 21:29:00 10° NNW 21:33:29 87° ENE 21:37:56 10° SSE
Cosmos 1869 3.4 21:30:28 10° S 21:34:18 53° E 21:38:10 10° NNE
SeaSat 1 2.9 21:40:09 10° SE 21:44:53 49° NE 21:49:39 10° NNW
Cosmos 2026 Rocket 4.0 21:39:13 10° N 21:45:33 83° E 21:51:44 10° S
H-2A R/B 4.1 21:45:10 10° E 21:47:26 14° NE 21:49:44 10° NNE
USA 186 3.5 21:45:51 10° SSW 21:48:17 28° W 21:50:53 10° NNW
Cosmos 1315 Rocket 4.1 21:44:38 10° NNW 21:48:33 43° W 21:52:24 10° SSW
Cosmos 1697 Rocket 3.4 21:43:02 10° SW 21:48:38 61° NW 21:54:15 10° NNE
CENTAUR R/B 2.9 21:42:52 10° SW 21:49:10 78° NW 21:56:26 10° NE
MetOp-A 4.4 21:49:51 10° SE 21:55:02 52° ENE 22:00:14 10° N
Cosmos 1933 4.0 21:51:26 10° SSE 21:55:08 36° E 21:58:50 10° NNE
Abrixas rocket 3.2 21:52:52 10° SW 21:55:43 27° SSE 21:58:00 13° ESE
Cosmos 1503 Rocket 4.3 21:51:45 10° NNW 21:57:02 68° WSW 22:02:12 10° SSE
Cosmos 1867 3.9 21:53:14 10° NW 21:58:39 60° NE 22:03:20 14° ESE
YAOGAN 6 2.6 21:55:02 10° SSE 21:58:41 76° ENE 22:02:19 10° N
Cosmos 1354 Rocket 4.4 21:55:09 10° NNW 22:00:24 64° WSW 22:05:36 10° S
Cosmos 2263 Rocket 2.2 21:55:14 10° NNW 22:00:51 85° ENE 22:06:05 12° SSE
Cosmos 1707 Rocket 4.4 21:59:58 10° SSW 22:04:21 56° WNW 22:08:43 10° N
Meteor 1-29 3.0 22:01:57 10° NNE 22:05:29 84° WNW 22:08:57 10° SSW
Cosmos 1733 Rocket 3.1 22:02:02 10° NNW 22:06:30 85° W 22:10:58 10° S
Cosmos 1655 Rocket 4.1 22:01:16 10° N 22:07:43 85° W 22:14:05 10° S
H-2A R/B 2.9 22:04:41 14° ESE 22:08:18 32° ENE 22:12:41 10° N
Helios 1B rocket 2.7 22:04:26 10° N 22:08:32 71° WNW 22:12:36 10° SSW
Terra 3.5 22:05:46 12° E 22:08:49 21° ENE 22:12:17 10° N
Cosmos 1634 Rocket 4.3 22:02:54 10° SSW 22:09:12 76° WNW 22:15:35 10° N
Cosmos 2322 Rocket 2.3 22:03:51 10° S 22:09:17 54° ESE 22:14:47 10° NE
Lacrosse 4 Rocket 2.3 22:07:45 10° NW 22:11:52 45° WSW 22:16:00 10° S
Cosmos 1825 3.1 22:09:40 10° NNW 22:13:22 49° W 22:17:03 10° S
Cosmos 1862 3.6 22:11:31 10° NNW 22:15:32 70° W 22:19:32 10° S
Cosmos 1862 Rocket 3.6 22:12:48 10° S 22:17:13 68° E 22:21:42 10° NNE
Meteor 2-10 Rocket 4.1 22:12:27 10° SSE 22:17:57 46° E 22:23:28 10° NNE
SL-08 RB Rocket 4.1 22:16:00 17° SE 22:19:14 47° ENE 22:23:38 10° N
Cosmos 2360 Rocket 3.0 22:15:51 11° SSE 22:20:31 29° ESE 22:25:21 10° NE
Cosmos 1980 Rocket 3.0 22:15:38 10° SW 22:21:14 57° NW 22:26:53 10° NNE
USA 267 3.6 22:14:50 10° ENE 22:21:21 70° NNW 22:27:52 10° WSW
Cosmos 968 Rocket 3.5 22:17:24 10° NNW 22:22:36 71° ENE 22:26:25 19° SE
Cosmos 1939 Rocket 4.4 22:23:23 10° SSW 22:27:07 34° W 22:30:49 10° NNW
NOAA 11 4.2 22:24:37 13° SSE 22:29:35 89° WSW 22:35:08 10° NNW
Envisat 4.5 22:26:17 10° SSW 22:30:54 35° W 22:35:33 10° NNW
YAOGAN 11 4.1 22:27:48 16° SSE 22:31:18 89° WSW 22:35:40 10° NNW
Cosmos 2242 Rocket 4.2 22:26:54 10° SSW 22:31:22 59° WNW 22:35:50 10° N
Cosmos 2266 Rocket 4.0 22:27:06 10° N 22:33:20 71° ENE 22:38:21 17° SSE
Okean 1-7 4.0 22:32:09 23° SE 22:33:47 29° E 22:37:37 10° NNE
Cosmos 1782 4.4 22:34:53 18° E 22:35:19 18° E 22:38:06 10° NE
SL-16 R/B 2.1 22:30:38 10° SSW 22:36:18 81° ESE 22:42:01 10° NNE
Cosmos 1703 Rocket 4.0 22:34:29 21° SSE 22:37:04 44° E 22:41:17 10° NNE
SPOT 5 2.8 22:34:04 18° SSE 22:37:45 86° ENE 22:42:25 10° NNW
CZ-4C R/B 3.6 22:32:01 10° NW 22:38:15 42° NNE 22:44:55 11° E
Cosmos 2221 Rocket 4.2 22:37:29 25° SE 22:39:20 36° E 22:43:24 10° NNE
ATLAS 3B R/B 4.4 22:34:58 10° NW 22:41:08 29° N 22:47:00 10° ENE
ATLAS 5 CENTAUR R/B 2.5 22:37:25 10° NW 22:43:14 70° SW 22:47:28 22° SSE
Cosmos 1633 4.2 22:43:22 10° NNE 22:46:07 20° ENE 22:46:49 19° E
Cosmos 2333 Rocket 4.2 22:46:51 11° E 22:46:51 11° E 22:47:39 10° E
MetOp-B 4.4 22:44:34 14° S 22:49:05 66° WSW 22:54:27 10° NNW
Cosmos 2279 Rocket 4.5 22:45:24 10° SSW 22:51:35 63° WNW 22:57:47 10° N
Cosmos 2278 Rocket 3.4 22:47:36 10° NNW 22:52:39 31° NE 22:56:09 17° E
Meteor 1-26 Rocket 4.2 22:48:41 12° S 22:53:53 74° E 22:59:41 10° NNE
CARTOSAT-1 4.2 22:52:49 29° ESE 22:54:28 41° ENE 22:58:34 10° N
SPOT 1/Viking Rocket 3.5 22:52:06 23° SSE 22:55:26 88° ENE 23:00:42 10° NNW
ARGOS 3.3 22:53:22 19° S 22:57:16 72° WSW 23:02:41 10° NNW
Cosmos 1844 Rocket 2.8 22:59:05 10° NNW 23:04:40 67° ENE 23:07:24 30° SE
Cosmos 2084 4.4 23:02:04 10° NW 23:05:35 34° NNE 23:07:20 23° E
Sich 1 Rocket 4.4 23:01:34 10° NNW 23:05:51 49° W 23:08:57 18° SSW
ERS-1 Rocket 4.5 23:02:40 10° SSW 23:07:09 32° W 23:11:40 10° NNW
PSLV R/B 3.7 23:12:57 40° NE 23:12:57 40° NE 23:15:23 10° N
Meteor 1-11 Rocket 4.2 23:13:13 10° N 23:18:31 45° ENE 23:20:33 32° ESE
MOS 1-B Rocket 4.4 23:16:43 19° S 23:20:55 55° W 23:26:27 10° NNW
Cosmos 1777 Rocket 4.0 23:15:43 10° NNW 23:21:02 78° WSW 23:23:18 35° SSE
SeaSat 1 3.7 23:19:46 19° SSW 23:22:33 33° WSW 23:27:02 10° NW
H-2A R/B 1.9 23:21:27 44° SSE 23:22:47 89° ENE 23:27:09 10° NNW
Cosmos 2219 Rocket 3.2 23:27:00 27° ESE 23:27:00 27° ESE 23:31:34 10° NE
Cosmos 1536 4.1 23:23:38 10° N 23:27:07 26° ENE 23:27:30 26° E
Landsat 7 4.0 23:29:02 35° S 23:30:58 68° WSW 23:35:44 10° NNW
Abrixas rocket 3.6 23:28:58 10° WSW 23:30:44 28° WSW 23:30:44 28° WSW
Okean 2 Rocket 3.7 23:32:48 10° NNW 23:37:14 54° W 23:38:59 33° SSW
DMSP B5D2-2 4.0 23:32:04 10° NNE 23:37:21 72° ESE 23:39:21 39° S
S3M 4.3 23:36:14 37° SE 23:38:07 48° E 23:44:02 10° NNE
CZ-4C R/B 3.5 23:39:34 50° E 23:39:46 51° ENE 23:43:24 10° N
Cosmos 2237 4.1 23:37:21 31° S 23:40:06 67° ESE 23:45:48 10° NE
CENTAUR R/B 4.3 23:34:50 10° W 23:40:57 36° NNW 23:47:50 10° NE
NOSS 3-1 (C) 4.3 23:43:38 30° ESE 23:43:38 30° ESE 23:48:44 10° ENE
Iridium 4 Rocket 3.2 23:39:41 10° N 23:43:50 50° E 23:44:04 49° E
Cosmos 2263 Rocket 4.3 23:40:21 10° WNW 23:44:03 18° W 23:47:45 10° SW
USA 229 DEB 3.6 23:39:03 11° SSW 23:45:32 65° SE 23:52:27 10° NE
USA 229 3.6 23:39:21 12° SSW 23:45:38 64° SE 23:52:32 10° NE
Spot 4 3.8 23:44:31 51° SE 23:45:39 72° ENE 23:50:26 10° N
Terra 1.9 23:44:38 43° S 23:46:06 69° WSW 23:50:52 10° NNW
Cosmos 1300 Rocket 3.7 23:41:51 10° N 23:46:07 55° ENE 23:46:35 52° ESE
H-2A R/B 2.9 23:45:18 26° SSW 23:47:39 42° W 23:52:22 10° NNW
COSMOS 2428 2.7 23:46:58 42° S 23:48:44 61° ESE 23:54:23 10° NE
IGS 5A 3.6 23:48:08 52° SSW 23:48:53 65° WSW 23:53:03 10° NNW
CZ-4 R/B 3.8 23:46:15 10° NNE 23:50:58 61° ESE 23:51:39 54° SE
Cosmos 2322 Rocket 3.8 23:48:31 10° WSW 23:53:37 34° NW 23:58:46 10° NNE
